Wetbulb
48.36 48.79 46.56 50.12 51.59 52.54 51.17 49.89 50.42 55.27 59.17 57.62 55.78 55.05 57.72 59.13 61.42 61.40 61.67 62.05 62.68 63.62 65.43 65.43 67.40 67.92 66.94 68.48 68.81 69.43 69.31 69.30 69.57 69.34 68.43 68.13 68.49 70.72 71.13 71.24 71.79 70.94 71.08 72.18
44.34 43.76 50.38 52.96 53.35 51.46 49.61 48.57 49.09 55.90 58.90 57.10 56.08 55.06 57.64 58.81 59.12 62.06 62.31 62.14 62.89 63.33 61.37 64.23 66.46 66.92 66.65 67.12 68.32 68.28 69.38 68.98 70.02 69.69 69.41 69.12 69.69 70.97 70.40 70.27 68.89 68.96 70.59 71.46
41.95 46.26 51.62 52.03 50.82 50.13 47.14 45.76 49.21 52.75 56.85 56.55 54.77 51.90 56.08 59.65 61.73 62.49 63.63 64.00 64.22 63.10 61.24 62.92 64.94 66.00 66.30 66.33 67.39 67.46 68.99 69.03 70.03 70.13 69.11 71.07 72.30 70.98 68.65 68.50 68.83 69.47 71.94 73.03
43.82 48.23 49.91 48.19 49.33 49.87 44.00 51.40 51.76 51.42 51.85 47.66 53.94 44.19 50.25 54.42 56.86 59.76 62.04 62.64 63.72 62.91 62.45 63.44 64.40 65.28 66.16 66.51 67.52 67.80 68.61 69.24 69.79 69.80 68.72 69.38 68.89 68.70 69.24 69.13 70.43 71.23 72.75 72.45
44.70 45.55 46.48 46.77 48.83 50.25 48.19 51.08 49.24 49.23 49.29 45.98 47.42 45.47 47.25 52.57 53.86 56.27 59.81 61.94 63.53 63.59 63.05 63.47 64.47 66.35 67.12 67.51 67.07 67.50 67.83 69.04 69.93 70.09 69.66 69.57 68.89 69.69 69.78 70.81 70.80 71.02 71.43 70.74
44.80 47.42 47.18 47.47 49.04 49.34 49.50 45.84 43.73 41.82 41.04 38.99 43.43 44.54 42.16 49.80 53.41 57.66 58.19 61.63 62.67 62.47 63.68 63.74 65.77 66.95 67.50 67.83 67.56 67.52 68.05 68.25 69.35 69.84 69.11 69.29 69.66 69.39 69.69 69.46 69.96 71.03 70.91 68.24
43.06 44.09 45.25 46.69 42.04 43.73 42.98 39.08 35.32 36.31 35.36 36.81 38.81 42.24 44.29 48.76 54.64 57.16 57.37 59.96 61.92 62.83 62.94 63.47 64.04 66.24 67.33 68.13 68.18 67.93 68.11 68.77 69.33 69.83 70.08 69.94 70.23 70.33 70.08 69.32 69.71 70.26 68.18 66.72
37.45 38.70 43.80 45.82 45.09 42.43 39.46 39.35 36.01 32.42 32.71 35.92 38.39 39.24 45.91 54.99 57.14 59.28 59.64 60.17 61.62 61.69 63.09 64.27 65.21 66.44 67.55 68.49 69.24 69.08 67.17 69.06 69.54 70.06 70.60 71.27 71.24 70.87 70.50 70.33 70.24 70.89 68.40 67.12
36.54 39.15 45.91 46.14 45.49 45.65 40.24 37.84 40.39 35.54 32.36 34.66 37.82 45.00 51.30 55.42 56.25 58.14 59.36 60.71 60.44 62.09 63.80 64.29 65.38 66.40 67.37 67.97 68.40 69.59 68.91 68.48 70.62 70.22 70.30 70.81 71.22 70.65 70.33 69.43 70.20 71.17 68.26 68.59
40.48 38.06 42.06 46.01 46.15 44.71 42.20 43.12 37.68 35.56 32.91 32.80 36.32 39.41 44.36 50.70 53.87 56.02 58.26 59.29 60.84 61.81 63.12 63.57 65.70 66.37 66.63 67.83 68.57 69.57 69.77 69.20 70.62 71.18 70.80 71.29 70.73 71.26 70.36 68.50 68.09 69.93 68.06 68.96
42.07 39.55 42.32 43.10 42.26 41.16 41.40 38.94 36.63 36.59 36.00 33.75 33.17 39.21 48.78 49.89 54.08 55.30 56.19 60.07 61.06 61.85 61.57 61.24 60.74 65.41 66.43 67.21 68.47 68.99 69.64 69.67 70.82 71.83 71.84 71.46 71.57 71.46 70.21 67.15 67.71 69.46 69.19 68.95
44.68 38.94 38.08 41.13 44.30 45.12 41.75 40.72 38.30 35.64 34.51 33.60 35.01 39.56 51.65 52.81 54.69 55.67 56.57 58.28 58.41 61.33 61.62 62.43 62.09 62.72 64.73 66.16 68.38 69.41 69.88 69.97 71.64 72.88 72.57 72.70 72.32 70.32 68.43 68.52 69.76 70.06 68.70 69.45
45.54 39.06 36.68 41.00 44.23 44.74 41.21 39.98 36.93 36.58 35.10 33.66 35.93 39.64 51.43 51.16 52.82 55.33 57.25 58.03 58.75 61.00 60.83 61.53 62.03 61.66 62.27 65.59 68.68 69.95 70.62 70.64 71.86 73.18 73.41 72.68 70.67 70.77 70.09 70.57 71.18 70.03 67.98 67.96
51.60 39.00 39.67 38.85 42.81 44.60 44.85 45.36 41.26 39.52 37.50 36.32 39.20 41.49 48.42 51.53 52.32 54.33 55.42 58.03 59.81 60.15 61.56 60.77 60.49 60.74 63.09 66.05 68.80 70.96 71.46 72.60 72.59 72.51 73.15 71.34 70.59 70.27 67.84 67.45 70.57 67.53 66.70 66.70
45.54 41.33 41.07 42.66 46.49 48.51 48.20 47.28 50.66 46.82 42.54 44.02 47.34 44.82 51.52 53.03 52.27 54.86 57.28 58.14 59.13 59.13 60.82 61.04 60.36 60.15 64.13 67.30 69.22 70.98 71.93 72.36 72.75 72.65 72.83 71.27 70.55 68.85 68.29 69.70 69.92 67.49 67.01 66.40
44.63 41.78 45.35 43.40 49.07 50.11 48.33 49.93 52.62 53.30 52.26 52.06 52.14 50.68 55.59 56.45 59.57 56.90 57.38 58.16 57.86 58.49 59.46 60.77 61.28 61.49 64.94 68.52 69.84 71.38 71.66 71.80 73.00 72.81 72.50 70.62 70.42 69.31 69.73 70.28 68.81 66.13 66.38 65.93
47.12 44.34 42.41 40.89 45.91 45.76 44.57 48.52 51.79 52.24 52.70 52.20 48.87 53.71 56.23 56.79 60.85 62.06 62.82 64.11 62.36 59.45 60.36 63.56 61.21 64.32 66.08 69.02 70.69 71.08 71.80 72.30 72.49 72.45 71.46 70.53 69.80 68.88 69.69 68.16 67.01 65.90 65.29 64.42
44.93 43.46 40.99 40.38 41.36 38.05 46.63 53.88 55.21 53.55 54.92 55.46 55.24 55.84 56.60 57.21 58.50 59.80 64.07 63.29 64.28 66.29 67.23 68.44 68.14 66.56 67.38 69.84 70.62 71.30 71.42 71.90 71.85 71.91 69.83 69.81 69.55 68.50 66.20 65.06 65.98 66.21 64.66 60.35
46.66 43.58 40.68 40.16 38.62 42.37 49.02 53.37 52.25 48.66 51.74 56.19 54.48 54.95 56.16 58.20 60.05 59.11 60.56 64.21 62.95 65.34 68.42 68.60 69.96 69.93 69.48 70.36 71.26 71.59 71.25 71.21 71.82 70.58 69.54 68.72 68.07 65.59 64.48 64.40 65.60 64.78 60.44 55.67
46.85 44.62 44.03 39.99 38.40 38.29 45.75 54.99 56.10 53.49 46.27 56.87 55.14 54.07 54.07 55.52 51.61 55.90 61.32 62.24 63.23 65.30 67.20 70.08 71.67 71.79 71.02 71.70 72.07 71.21 70.99 71.36 70.75 70.19 68.90 67.69 66.27 65.16 63.90 64.57 64.37 62.00 59.45 55.64
45.72 45.45 43.02 41.89 41.06 44.73 50.72 55.81 55.62 45.49 47.17 57.00 56.57 54.63 53.68 52.59 54.02 56.70 60.29 61.72 63.27 64.55 67.73 69.74 72.11 71.17 72.39 72.28 72.34 71.07 71.23 70.79 71.33 70.65 68.66 67.21 66.34 65.18 64.87 64.11 62.22 60.25 57.59 54.60
45.66 44.30 43.52 42.57 41.43 41.71 55.17 54.57 49.43 51.68 55.26 57.58 56.80 56.31 55.28 55.19 56.20 57.93 59.90 60.89 62.25 64.87 68.33 70.27 71.72 71.71 72.79 73.04 72.52 71.61 71.23 71.52 70.68 69.29 67.96 67.10 66.16 66.03 64.49 62.76 60.69 58.80 56.59 53.65
45.86 47.76 46.26 46.69 46.34 51.04 53.48 52.06 54.53 55.70 54.20 56.02 55.73 57.21 57.16 56.40 55.67 57.08 58.30 60.10 61.24 65.48 66.92 69.17 70.07 71.15 72.15 72.17 72.48 71.66 71.98 71.23 69.79 68.54 67.28 66.09 65.91 65.17 63.88 61.72 59.44 57.36 55.68 53.04
47.78 50.03 48.22 48.57 51.65 52.09 54.81 55.79 56.05 56.54 55.29 55.95 56.75 56.65 57.46 56.45 57.67 58.10 58.88 59.28 64.40 66.22 67.54 68.16 68.67 69.85 69.79 69.94 70.95 70.92 70.60 70.19 68.90 67.44 66.53 66.04 65.01 64.37 63.24 61.97 60.30 57.91 56.07 53.26
48.17 49.32 47.87 49.08 52.96 55.15 56.98 57.20 55.61 57.04 58.17 59.17 59.49 57.96 58.16 57.29 56.83 58.65 58.58 63.18 65.41 66.39 67.97 67.95 68.02 69.08 68.45 67.78 67.66 69.76 69.81 69.38 68.07 66.94 66.40 65.83 65.07 64.31 62.69 61.08 59.23 58.76 57.57 55.77
48.77 49.50 47.09 46.34 51.89 52.49 54.21 57.25 59.27 58.86 58.97 58.89 57.48 57.41 58.34 58.67 58.67 61.21 64.34 64.65 63.02 63.42 66.23 67.44 67.06 66.62 67.98 67.37 68.11 69.00 69.29 68.79 67.46 66.42 66.30 65.65 65.17 64.31 61.34 57.70 53.69 48.68 52.95 53.19
MSLP
1004.22 1004.96 1005.29 1005.36 1005.47 1005.66 1005.87 1005.73 1005.53 1004.81 1004.05 1003.41 1004.27 1004.69 1005.27 1005.78 1006.42 1007.23 1007.38 1006.65 1006.82 1007.09 1007.00 1007.71 1008.52 1009.19 1009.86 1010.52 1011.08 1011.46 1011.87 1012.22 1012.80 1013.45 1014.10 1014.28 1014.46 1014.29 1014.32 1014.57 1014.71 1015.02 1015.06 1015.15
1005.06 1005.16 1005.01 1004.88 1005.09 1005.52 1005.85 1005.84 1005.55 1005.03 1004.31 1004.12 1003.82 1004.22 1005.20 1005.52 1005.68 1006.26 1006.06 1006.96 1006.93 1007.12 1007.46 1007.62 1008.06 1008.84 1009.42 1009.96 1010.52 1011.15 1011.56 1012.04 1012.40 1012.89 1013.28 1013.64 1014.02 1014.24 1014.38 1014.58 1014.81 1015.10 1014.90 1014.92
1005.05 1004.79 1004.53 1004.87 1004.88 1005.37 1005.48 1005.68 1005.62 1005.24 1005.16 1004.99 1005.06 1005.16 1005.57 1005.63 1005.69 1005.54 1005.24 1006.16 1006.65 1006.77 1007.06 1007.54 1007.97 1008.17 1009.13 1009.68 1010.04 1010.51 1011.04 1011.64 1012.04 1012.44 1013.04 1013.54 1013.89 1014.29 1014.64 1014.78 1014.75 1014.73 1014.64 1014.63
1004.69 1004.22 1004.30 1004.52 1004.83 1005.22 1005.20 1004.48 1005.11 1005.35 1006.02 1005.77 1005.74 1006.37 1005.99 1005.89 1005.96 1005.32 1004.84 1005.93 1006.03 1006.41 1006.68 1007.01 1007.46 1007.96 1008.23 1008.76 1009.39 1009.89 1010.58 1011.13 1011.61 1012.03 1012.54 1013.08 1013.55 1014.22 1014.47 1014.40 1014.41 1014.46 1014.35 1014.60
1004.31 1003.86 1004.03 1004.29 1004.00 1004.55 1004.53 1004.18 1005.20 1005.42 1006.41 1006.45 1006.74 1007.16 1006.13 1006.34 1006.02 1005.15 1004.69 1006.01 1005.88 1005.63 1005.84 1006.33 1006.64 1007.03 1007.25 1008.03 1008.76 1009.20 1010.10 1010.75 1011.01 1011.47 1011.92 1012.58 1013.28 1013.68 1013.84 1014.11 1014.37 1014.51 1014.62 1014.53
1004.17 1003.59 1003.67 1003.31 1003.04 1003.71 1003.89 1004.88 1005.97 1006.77 1007.48 1007.70 1007.13 1007.58 1006.48 1006.13 1004.57 1004.08 1005.10 1005.34 1005.36 1005.36 1005.20 1005.62 1005.96 1006.87 1007.36 1007.96 1008.56 1009.08 1009.91 1010.41 1010.70 1011.01 1011.49 1012.12 1012.79 1013.35 1013.86 1014.22 1014.48 1014.63 1014.76 1015.02
1004.46 1003.67 1002.97 1002.73 1003.30 1003.67 1004.49 1006.04 1007.25 1008.34 1009.07 1008.74 1007.54 1007.65 1004.89 1004.12 1003.94 1003.85 1004.12 1004.71 1004.84 1004.89 1005.32 1005.69 1005.98 1006.23 1006.94 1007.50 1008.18 1008.83 1009.60 1010.16 1010.50 1010.79 1011.17 1011.65 1012.30 1012.91 1013.43 1013.94 1014.34 1014.81 1015.05 1015.30
1005.05 1003.89 1002.73 1002.27 1002.50 1003.21 1004.51 1005.76 1007.44 1008.81 1009.97 1009.21 1007.55 1006.65 1004.27 1003.90 1003.63 1003.29 1003.56 1003.79 1003.87 1004.02 1004.29 1004.51 1004.95 1005.58 1005.99 1006.78 1007.66 1008.37 1009.25 1009.80 1010.20 1010.51 1010.86 1011.39 1011.94 1012.57 1012.97 1013.51 1014.02 1014.32 1014.65 1015.02
1004.91 1003.82 1002.31 1001.73 1001.84 1002.42 1004.52 1005.83 1006.64 1008.47 1009.97 1009.64 1008.12 1006.34 1004.36 1004.19 1004.34 1004.19 1004.10 1004.05 1003.69 1003.45 1003.76 1003.74 1003.97 1004.63 1005.53 1006.13 1006.78 1007.67 1008.43 1009.32 1009.75 1009.94 1010.56 1011.17 1011.89 1012.20 1012.70 1013.27 1013.72 1014.03 1014.41 1014.88
1004.43 1004.19 1002.57 1001.91 1001.64 1002.70 1003.36 1005.11 1006.97 1008.42 1009.89 1010.03 1008.66 1007.13 1005.43 1004.43 1004.23 1004.21 1004.22 1003.88 1002.96 1003.12 1003.60 1003.36 1003.55 1004.09 1004.67 1005.33 1006.27 1007.40 1007.89 1008.39 1008.93 1009.21 1009.89 1010.74 1011.63 1012.24 1012.97 1013.48 1014.02 1014.22 1014.35 1014.89
1004.26 1004.65 1003.47 1002.62 1002.59 1003.22 1004.17 1005.20 1007.04 1008.45 1009.18 1009.68 1008.94 1007.23 1004.44 1003.95 1003.67 1003.63 1003.75 1003.06 1002.64 1003.27 1003.72 1003.52 1004.20 1003.75 1004.15 1004.91 1005.66 1006.39 1007.27 1008.08 1008.57 1008.94 1009.47 1010.63 1011.81 1012.97 1013.58 1014.29 1014.72 1014.91 1014.94 1015.11
1003.56 1004.65 1004.55 1003.59 1002.74 1002.73 1003.26 1004.36 1005.93 1008.19 1009.24 1009.29 1008.48 1006.01 1003.57 1003.45 1003.00 1002.76 1002.34 1002.38 1002.71 1002.73 1002.93 1003.17 1003.69 1003.91 1003.99 1004.38 1004.94 1005.76 1006.56 1007.31 1007.70 1008.51 1009.27 1010.89 1012.57 1013.82 1014.66 1015.05 1015.37 1015.48 1015.75 1015.83
1003.32 1004.81 1005.01 1004.30 1003.64 1003.11 1003.28 1004.25 1005.29 1006.54 1007.75 1008.55 1008.25 1005.83 1004.16 1003.37 1003.29 1002.95 1002.81 1002.33 1002.31 1002.18 1002.75 1003.02 1003.15 1003.95 1003.87 1004.34 1004.81 1005.42 1006.01 1006.54 1007.23 1008.48 1009.56 1011.11 1012.72 1013.34 1013.62 1014.44 1015.09 1015.77 1015.59 1015.85
1002.50 1004.91 1005.23 1005.24 1004.73 1003.98 1003.72 1003.88 1004.64 1005.66 1007.39 1007.96 1007.29 1005.91 1004.94 1004.55 1004.27 1003.42 1003.13 1002.53 1002.14 1001.79 1002.64 1002.79 1003.28 1003.33 1003.65 1003.96 1004.41 1005.00 1005.69 1006.63 1007.30 1008.55 1009.67 1010.99 1011.72 1011.86 1012.10 1012.12 1014.59 1015.48 1015.52 1015.59
1003.20 1005.00 1005.34 1005.06 1004.41 1003.89 1003.89 1004.38 1004.78 1005.59 1006.42 1006.88 1006.61 1006.34 1005.93 1005.34 1004.46 1004.33 1003.90 1003.69 1003.27 1002.83 1002.67 1002.56 1002.71 1002.93 1003.11 1003.51 1004.18 1004.86 1005.68 1006.71 1007.53 1008.30 1009.60 1010.45 1010.96 1011.22 1012.08 1012.73 1013.67 1014.87 1015.30 1015.86
1004.26 1005.51 1005.64 1005.62 1004.72 1004.09 1004.43 1004.89 1005.13 1005.89 1006.48 1006.50 1006.40 1006.49 1006.36 1005.40 1004.31 1004.16 1004.29 1004.19 1003.83 1003.20 1002.83 1002.99 1002.58 1002.77 1003.13 1003.43 1003.99 1004.69 1005.80 1006.62 1007.22 1008.04 1009.19 1010.32 1010.97 1011.33 1012.08 1013.02 1013.79 1014.71 1015.31 1016.03
1004.94 1005.87 1006.46 1006.50 1005.52 1004.98 1005.15 1005.23 1005.53 1006.22 1006.64 1006.88 1006.67 1006.44 1006.52 1005.98 1004.94 1004.72 1004.43 1004.03 1003.72 1003.24 1002.57 1002.58 1002.58 1002.47 1002.58 1002.66 1003.33 1004.21 1005.34 1006.19 1007.03 1007.89 1009.18 1010.09 1010.94 1011.64 1012.02 1012.83 1013.67 1014.50 1015.33 1015.65
1005.26 1006.36 1006.98 1007.42 1006.36 1006.15 1005.61 1005.01 1005.31 1005.85 1006.70 1006.80 1006.76 1006.60 1006.27 1005.89 1005.52 1005.33 1004.88 1004.40 1003.70 1003.34 1002.87 1002.85 1002.90 1002.48 1002.45 1003.04 1003.88 1004.61 1005.48 1006.15 1006.93 1007.91 1009.02 1009.88 1010.57 1011.25 1011.90 1012.68 1013.53 1014.38 1015.02 1015.50
1005.03 1006.34 1007.55 1007.91 1007.50 1006.95 1006.05 1005.47 1005.42 1005.75 1006.65 1006.90 1006.97 1006.39 1005.94 1005.30 1004.95 1004.66 1004.29 1004.83 1004.38 1004.20 1003.54 1002.69 1002.97 1003.31 1003.23 1002.82 1003.26 1004.16 1005.08 1006.09 1006.58 1007.63 1008.53 1009.29 1009.85 1010.77 1011.56 1012.37 1013.33 1014.07 1014.94 1015.79
1005.63 1006.01 1007.10 1008.23 1007.87 1006.97 1005.24 1004.80 1005.00 1005.62 1006.14 1006.40 1006.67 1006.67 1006.22 1005.55 1005.87 1005.80 1004.79 1004.61 1004.64 1005.62 1004.80 1002.93 1002.84 1003.63 1003.92 1003.89 1004.21 1004.62 1005.29 1005.54 1006.42 1007.31 1008.10 1008.94 1009.98 1010.80 1011.42 1012.06 1013.00 1013.77 1014.64 1015.65
1006.51 1007.19 1007.60 1007.95 1007.41 1006.30 1005.30 1004.87 1004.92 1005.80 1006.25 1005.70 1006.06 1006.35 1006.26 1006.17 1005.87 1006.19 1005.56 1005.39 1005.13 1004.19 1001.94 1002.51 1003.10 1003.74 1003.98 1004.14 1004.10 1004.71 1005.26 1006.06 1006.38 1006.69 1007.70 1008.76 1009.35 1010.04 1011.03 1012.01 1012.87 1013.73 1014.75 1015.62
1006.96 1007.41 1007.80 1007.83 1007.20 1006.21 1004.94 1005.05 1005.15 1005.14 1005.30 1005.41 1005.82 1006.12 1006.43 1006.19 1005.84 1005.42 1004.82 1004.23 1003.46 1002.96 1002.20 1002.50 1002.98 1003.20 1003.53 1003.69 1003.62 1004.37 1004.58 1005.17 1006.13 1007.11 1007.72 1008.49 1009.17 1009.99 1011.06 1012.01 1013.01 1013.92 1014.89 1015.87
1007.06 1006.93 1007.11 1007.27 1006.51 1005.63 1005.18 1005.22 1004.95 1005.04 1005.37 1005.69 1005.84 1005.68 1005.77 1005.82 1005.62 1005.35 1004.99 1004.10 1003.69 1003.08 1002.79 1002.93 1003.38 1003.21 1003.07 1003.29 1003.63 1003.79 1004.48 1004.71 1005.81 1006.65 1006.89 1008.26 1009.44 1009.92 1010.67 1011.85 1012.70 1013.93 1014.81 1015.74
1006.74 1006.52 1006.92 1007.04 1006.45 1005.92 1005.50 1005.29 1005.28 1005.43 1005.42 1005.51 1005.71 1005.74 1005.72 1005.61 1005.29 1005.33 1004.95 1004.42 1004.02 1003.42 1003.34 1003.14 1003.44 1003.86 1003.73 1003.30 1003.60 1003.54 1004.15 1005.49 1006.09 1006.72 1007.25 1007.96 1008.94 1009.70 1010.51 1011.52 1012.29 1013.65 1014.65 1015.57
1007.38 1006.94 1007.14 1007.13 1006.71 1006.21 1005.52 1005.27 1005.33 1005.41 1005.50 1005.70 1005.76 1005.67 1005.46 1005.53 1005.34 1005.13 1004.79 1004.54 1004.01 1003.69 1003.26 1003.26 1003.54 1003.48 1003.50 1003.50 1003.50 1003.83 1004.28 1004.55 1006.30 1007.29 1007.53 1008.51 1009.50 1010.05 1010.68 1011.57 1012.24 1013.27 1014.22 1014.83
1007.22 1006.94 1007.06 1006.91 1006.48 1006.21 1005.62 1005.14 1005.09 1005.30 1005.34 1005.51 1005.56 1005.37 1005.08 1005.15 1004.89 1004.55 1004.32 1004.10 1004.25 1003.93 1004.00 1003.61 1003.39 1003.82 1004.03 1004.16 1004.38 1004.65 1004.39 1004.88 1006.73 1007.42 1008.07 1007.93 1009.49 1010.19 1011.31 1011.84 1013.18 1013.83 1014.17 1015.06
Wind_Speed
3 6 5 8 6 5 4 3 4 4 8 1 5 4 6 9 11 13 14 18 16 16 13 13 15 14 11 10 11 13 12 8 7 3 4 2 3 2 1 3 4 5 4 5
6 4 9 4 1 2 3 3 3 5 7 2 6 9 4 9 12 16 19 14 15 12 6 11 15 15 15 15 14 11 11 9 8 5 3 3 3 2 2 1 1 4 4 5
6 6 5 4 4 4 3 5 4 10 3 6 4 8 1 3 2 9 16 14 11 14 11 11 14 17 13 14 15 15 13 12 9 7 4 3 3 3 3 1 3 4 5 3
4 4 5 0 5 7 6 7 8 6 6 9 5 7 5 4 4 8 15 9 13 10 8 12 15 15 16 16 14 15 13 13 10 8 6 6 5 4 4 4 3 3 4 5
8 3 4 6 12 6 12 3 8 6 9 2 1 4 9 1 6 12 11 5 8 12 15 16 18 19 19 15 14 15 13 12 11 12 10 8 4 4 2 2 5 3 3 5
6 2 6 10 7 8 2 4 8 6 4 2 5 6 9 6 12 11 8 8 8 9 12 13 14 13 13 11 10 11 11 10 10 12 9 10 8 6 4 3 4 3 3 3
7 5 4 5 3 2 5 7 4 5 6 7 5 4 12 4 3 3 10 9 9 9 8 8 12 15 13 15 14 9 11 10 10 12 10 10 9 8 8 6 5 5 3 2
4 7 6 4 10 9 4 9 8 6 3 7 3 5 9 2 6 7 7 8 8 10 13 15 15 15 17 16 14 13 11 11 11 11 11 7 7 6 5 6 5 4 5 5
5 6 6 5 4 9 4 1 4 9 3 3 4 8 8 7 5 6 8 6 11 11 11 14 11 15 15 15 16 16 14 12 12 13 9 8 6 7 6 6 5 5 5 5
3 2 3 5 4 4 5 8 4 5 2 3 5 5 7 3 9 9 7 10 14 7 11 10 14 14 11 12 12 12 14 16 14 14 11 9 7 6 4 5 4 5 5 5
5 4 9 2 2 6 2 1 7 6 5 7 1 8 8 5 8 9 9 15 15 7 7 5 4 8 10 9 13 14 14 14 13 13 11 7 6 6 5 5 4 2 1 4
7 6 3 5 3 4 5 7 7 7 5 2 5 8 5 5 10 9 12 10 3 10 7 8 7 7 6 8 14 14 13 14 13 12 10 8 12 11 11 9 6 1 4 5
8 1 3 10 8 2 2 3 5 6 4 4 6 8 4 2 2 7 8 8 7 9 7 6 4 7 7 7 10 13 13 13 12 11 10 13 14 14 14 3 7 4 7 8
10 4 8 7 8 3 5 1 5 6 5 5 6 7 6 10 3 7 8 10 10 9 7 6 6 6 6 9 11 12 11 10 10 11 12 15 15 18 18 18 8 8 11 15
6 4 3 4 6 2 3 2 6 5 5 5 4 3 7 9 5 5 6 8 12 11 4 6 6 5 5 8 7 8 9 9 11 13 13 14 15 17 11 10 12 12 9 5
3 1 2 2 6 7 5 5 8 5 3 4 4 3 4 10 5 9 7 6 10 11 8 6 8 7 8 10 10 10 10 11 13 14 13 11 14 13 12 11 12 11 8 8
4 4 3 1 5 3 5 4 1 4 3 1 2 5 1 5 6 6 7 9 9 12 14 9 11 9 9 12 13 14 12 13 12 13 12 12 11 8 10 10 12 11 10 9
4 4 3 2 4 2 7 3 3 9 2 2 1 5 5 5 3 5 3 1 9 15 8 8 6 7 8 8 9 8 11 12 12 13 13 12 12 10 11 12 12 11 10 9
4 5 4 5 2 1 2 5 4 1 4 3 3 6 4 7 2 4 4 1 7 8 10 1 3 4 2 10 11 12 12 13 13 14 14 15 15 13 13 12 12 10 9 7
6 5 6 3 4 6 8 3 2 2 5 9 8 7 5 5 5 6 7 10 14 17 8 5 6 3 2 4 7 10 10 13 13 13 14 13 12 13 14 13 12 8 9 8
3 3 6 3 3 6 6 4 2 4 9 6 6 5 3 3 5 5 7 7 11 27 3 2 6 5 5 5 9 10 10 10 11 13 13 13 13 14 13 12 8 9 9 9
4 5 3 3 3 3 6 1 6 8 2 2 4 5 5 7 9 7 9 9 9 10 7 1 7 9 10 11 13 12 12 10 12 12 14 15 13 11 9 12 9 10 10 9
1 5 4 7 7 4 2 1 2 3 4 4 2 4 3 5 6 8 9 10 10 8 7 4 5 6 9 9 8 12 9 14 14 13 14 14 12 11 12 12 12 9 9 8
4 2 3 3 2 2 3 3 2 4 3 2 3 2 2 7 8 8 9 8 7 2 4 4 5 6 6 6 7 7 11 7 11 12 13 12 13 12 11 9 9 8 8 7
5 4 1 2 4 4 6 6 2 4 5 6 6 4 6 5 9 8 6 8 6 6 3 1 4 5 5 5 5 8 11 16 11 9 10 10 8 11 10 8 7 8 5 7
3 4 3 5 4 3 6 5 3 6 5 6 6 6 7 7 8 5 7 6 4 4 5 4 3 4 1 2 4 7 12 10 10 9 8 9 7 8 7 8 6 12 7 10
Wind_Direction
9 95 181 212 181 174 188 221 257 262 268 202 154 238 212 189 187 202 209 206 197 204 206 175 180 179 163 167 170 183 175 173 155 147 181 171 178 212 149 156 162 204 222 218
26 189 216 234 221 196 158 250 272 283 275 2 282 270 168 181 210 200 209 208 204 200 173 174 176 173 178 173 178 178 186 172 179 183 166 128 151 161 116 119 212 280 224 208
159 226 180 165 292 310 229 200 180 225 209 318 329 314 173 266 198 194 215 212 199 200 183 178 178 181 172 179 181 183 184 180 183 180 118 87 81 66 56 342 266 233 230 184
237 230 190 128 250 152 277 187 205 259 140 228 139 267 292 274 261 245 219 188 193 190 187 178 182 185 185 190 186 183 183 183 189 172 165 163 171 163 188 195 205 203 173 159
244 178 173 196 233 138 239 283 207 245 169 63 14 75 272 260 261 245 221 171 194 191 183 183 187 189 193 183 183 181 184 186 182 183 185 182 163 186 170 159 163 147 140 147
243 281 155 215 247 177 271 100 37 42 81 45 246 133 272 198 217 236 119 178 182 185 191 196 190 185 192 185 182 167 177 189 182 184 179 181 176 175 161 159 161 154 144 129
325 264 248 172 208 19 90 61 349 5 11 230 242 184 240 300 220 184 179 165 191 202 197 196 186 186 184 189 184 169 176 190 187 187 186 184 184 177 189 176 163 154 146 150
161 322 183 179 181 184 164 150 157 174 184 263 288 244 262 38 148 124 127 166 203 198 192 200 201 194 188 187 183 178 181 192 187 188 196 184 173 179 182 175 166 170 167 160
153 270 296 218 162 135 170 167 194 108 38 51 271 294 330 78 107 117 165 189 220 219 188 199 181 188 191 188 181 183 179 198 194 192 184 192 168 175 185 166 155 167 155 158
190 337 280 327 110 52 136 152 68 13 156 250 298 288 243 207 184 168 191 208 235 209 218 216 190 182 177 190 180 182 188 193 194 193 184 189 176 168 153 145 172 190 168 152
146 111 285 14 110 189 51 54 54 114 126 160 196 269 220 231 207 213 198 217 223 224 213 275 142 153 172 160 182 187 188 188 190 198 179 158 138 94 66 55 56 335 43 137
200 152 243 235 258 239 179 171 131 121 237 124 145 270 227 222 210 210 233 220 163 219 218 223 178 160 182 172 176 187 187 189 188 192 165 121 91 86 72 57 323 15 79 47
182 10 28 349 355 345 98 169 112 110 86 187 134 258 359 103 267 256 255 255 254 215 186 206 243 178 172 179 176 184 190 186 172 166 138 112 116 114 103 205 232 133 102 81
96 103 145 162 219 237 345 343 143 121 113 173 224 286 38 343 294 262 257 269 254 286 183 198 200 200 181 175 173 179 179 171 147 143 131 129 144 140 171 174 165 137 133 130
90 123 153 218 247 237 25 70 64 70 133 119 270 252 346 300 279 282 291 331 317 298 236 217 222 223 159 157 160 171 158 145 147 138 143 150 157 161 165 155 145 151 151 151
25 183 183 35 356 86 79 33 78 57 64 72 87 31 54 295 49 41 24 313 280 286 285 267 253 197 182 178 176 168 156 150 148 143 149 148 158 171 158 155 145 142 145 152
75 116 70 292 323 72 21 345 132 123 43 217 155 222 12 309 39 56 2 357 335 297 290 276 209 203 198 186 175 178 160 147 150 138 139 149 159 158 155 142 143 146 159 141
116 95 89 183 15 70 251 331 185 124 168 245 46 275 251 243 210 235 273 245 8 342 320 325 284 194 180 164 164 146 142 147 143 136 141 149 154 153 146 144 150 148 155 145
125 118 86 124 153 269 345 249 211 191 200 201 300 312 302 329 109 339 301 356 30 343 305 358 359 306 246 160 152 147 145 151 144 150 155 157 158 156 151 148 157 155 145 142
72 80 118 130 142 193 228 212 79 123 304 184 181 245 290 353 68 279 336 360 2 325 281 352 77 36 83 108 136 141 151 152 157 158 159 156 150 152 162 154 156 149 148 137
14 13 150 149 192 286 245 221 131 121 237 185 186 220 301 332 210 169 258 240 208 213 129 28 99 114 132 140 136 147 155 173 164 152 152 145 158 159 158 148 145 136 131 127
185 153 191 85 93 257 187 135 156 215 253 238 183 201 238 259 294 295 306 295 308 309 358 260 172 168 165 175 158 161 167 153 154 156 145 153 154 150 146 138 131 130 134 135
299 186 197 167 212 256 278 225 5 165 173 208 226 259 266 292 282 285 291 306 319 299 308 312 239 204 194 184 183 166 172 156 156 168 155 147 147 151 146 145 136 132 139 144
317 87 116 84 270 317 326 279 205 206 241 204 244 296 274 281 289 289 288 300 289 330 269 253 229 238 226 174 188 163 147 157 150 160 150 151 147 144 143 144 140 143 149 151
222 12 75 299 286 317 285 250 238 246 266 289 299 286 271 263 282 261 268 267 266 281 286 302 213 228 227 200 190 150 153 142 167 155 141 136 146 152 138 134 137 158 162 167
198 184 142 231 236 185 252 283 221 235 242 237 238 273 253 228 273 288 271 256 286 293 343 292 196 134 102 129 146 129 107 111 128 145 154 129 161 140 142 132 96 53 110 151